星链-5869 (STARLINK-5869 )

导读

STARLINK-5869是美国太空探索技术公司Starlink星座中的一颗卫星,于2023年6月22日发射入轨。它属于SpaceX第二代星链网络的组成部分,主要为全球提供低延迟、高速率的宽带互联网接入服务,依托近地轨道部署,可为偏远地区、海洋船舶等提供网络覆盖,支撑星座持续组网扩容,服务全球卫星互联网用户。

基本信息
目录编号:
57061
目录名称:
STARLINK-5869
国际标识:
2023-088P
轨道中心:
EARTH
卫星名称:
星链-5869
卫星全名:
星链-5869 (STARLINK-5869 )
卫星状态:
在轨 (已飞行1170 天)
发射日期:
2023-06-22 UTC
国别 :
美国 (US)
星等 :
--
轨道信息
数据来源 国际轨道数据
星历时间: 2026-09-04T04:44:33+0800
12小时前
查看轨道信息
半长轴: 6862.571km
偏心率: 0.000211
轨道倾角: 43.001°
近地点辐角 282.392°
升交点赤经 187.676°
平近点角 77.670°
近地点: 482.985km
远地点: 485.883km
周期: 94.295分钟
每日圈数: 15.271177
详细信息
固有亮度:
5
最大亮度:
2.4
卫星平台:
Starlink v1.5
覆盖范围:
全球
运营商:
太空探索技术公司
运营商所在国:
美国
制造商(研发单位):
太空探索技术公司
制造商所在国:
美国
使用方式:
暂无
卫星简介
星链(Starlink)计划是由太空探索技术公司(SpaceX)提出的一个巨型低轨卫星互联网星座项目,计划在2019年至2024年间在太空搭建由约1.2万颗卫星组成的“星链”网络,其中1584颗将部署在地球上空550千米处的近地轨道,并从2020年开始工作。该卫星仍在工作。
2D轨道图
3D轨道图
轨道高度分析图
轨道倾角分析图
轨道综合分析图
查看轨道综合分析图